{"data":{"norad_id":68358,"intl_designator":"2026-060J","name":"CENTISPACE-2 S9","alt_names":[],"object_type":"PAYLOAD","status":"ACTIVE","operator":null,"country":"PRC","launch_date":"2026-03-22","launch_site_code":"YSLA","launch_vehicle":null,"mission":null,"orbit_class":"UNKNOWN","rcs_meters":null,"size_class":null,"mass_kg":null,"dimensions":null,"purposes":[],"wikipedia_slug":null,"has_3d_model":false,"image_url":null,"decayed_at":null,"tle_current":{"epoch":"2026-09-18T21:50:19.159008Z","epoch_age_seconds":209631,"freshness":"STALE","line1":"1 68358U 26060J   26261.90994397  .00000005  00000+0  72328-4 0  9991","line2":"2 68358  54.9798  32.3638 0009831 267.7571  92.2278 14.22206698 26306","mean_motion":14.22206698,"eccentricity":0.0009831,"inclination_deg":54.9798,"raan_deg":32.3638,"arg_perigee_deg":267.7571,"mean_anomaly_deg":92.2278,"bstar":7.2328e-5,"rev_number":2630,"period_min":101.25110520327,"perigee_km":810.82514321895,"apogee_km":824.97399031653,"semimajor_km":7196.0365667677,"source":"CELESTRAK","updated_at":"2026-09-20T09:00:24.160759Z"}}}